TimeMST,TemperatureF,Dew PointF,Humidity,Sea Level PressureIn,VisibilityMPH,Wind Direction,Wind SpeedMPH,Gust SpeedMPH,PrecipitationIn,Events,Conditions,WindDirDegrees,DateUTC
12:08 AM,21.2,17.6,86,29.99,2.0,West,4.6,-,0.00,Snow,Light Snow,260,2012-12-30 07:08:00
12:10 AM,21.2,17.6,86,29.99,2.0,West,4.6,-,0.00,Snow,Light Snow,260,2012-12-30 07:10:00
12:24 AM,21.2,17.6,86,30.00,4.0,West,3.5,-,0.00,Snow,Light Snow,270,2012-12-30 07:24:00
12:38 AM,21.2,17.6,86,29.99,2.0,West,3.5,-,0.00,Snow,Light Snow,260,2012-12-30 07:38:00
12:51 AM,21.2,15.8,80,29.99,1.8,Calm,Calm,-,0.00,Snow,Light Snow,0,2012-12-30 07:51:00
12:53 AM,21.0,16.0,81,30.07,2.0,Calm,Calm,-,0.00,Snow,Light Snow,0,2012-12-30 07:53:00
1:27 AM,21.2,15.8,80,30.00,1.8,Calm,Calm,-,0.00,Snow,Light Snow,0,2012-12-30 08:27:00
1:40 AM,19.4,15.8,86,30.00,3.0,Calm,Calm,-,0.00,Snow,Light Snow,0,2012-12-30 08:40:00
1:48 AM,15.8,12.2,86,29.99,4.0,Calm,Calm,-,0.00,,Overcast,0,2012-12-30 08:48:00
1:53 AM,12.9,9.0,84,30.09,4.0,Calm,Calm,-,0.00,,Overcast,0,2012-12-30 08:53:00
2:48 AM,12.2,8.6,85,30.01,2.5,Calm,Calm,-,0.00,Snow,Light Snow,0,2012-12-30 09:48:00
2:53 AM,14.0,9.0,80,30.11,3.0,Calm,Calm,-,0.00,Snow,Light Snow,0,2012-12-30 09:53:00
3:53 AM,16.0,10.9,81,30.11,4.0,Calm,Calm,-,0.00,Snow,Light Snow,0,2012-12-30 10:53:00
4:19 AM,8.6,3.2,79,30.02,1.8,Calm,Calm,-,0.00,,Mostly Cloudy,0,2012-12-30 11:19:00
4:44 AM,8.6,3.2,79,30.02,3.0,Calm,Calm,-,0.00,Snow,Light Snow,0,2012-12-30 11:44:00
4:53 AM,9.0,3.9,80,30.13,3.0,Calm,Calm,-,0.00,Snow,Light Snow,0,2012-12-30 11:53:00
5:30 AM,12.2,6.8,79,30.03,7.0,SSW,3.5,-,0.00,Snow,Light Snow,200,2012-12-30 12:30:00
5:53 AM,18.0,12.9,81,30.12,9.0,WSW,5.8,-,0.00,,Overcast,240,2012-12-30 12:53:00
6:20 AM,17.6,12.2,79,30.04,5.0,SW,5.8,-,0.00,Snow,Light Snow,230,2012-12-30 13:20:00
6:38 AM,17.6,12.2,79,30.05,4.0,SW,5.8,-,0.00,,Haze,230,2012-12-30 13:38:00
6:53 AM,18.0,14.0,84,30.14,4.0,WSW,5.8,-,0.00,,Overcast,240,2012-12-30 13:53:00
7:53 AM,19.0,15.1,85,30.15,4.0,WSW,5.8,-,0.00,Snow,Light Snow,250,2012-12-30 14:53:00
8:29 AM,19.4,14.0,80,30.08,2.5,WSW,6.9,-,0.00,Snow,Light Snow,240,2012-12-30 15:29:00
8:39 AM,19.4,14.0,80,30.08,2.5,WSW,5.8,-,0.00,Snow,Light Snow,240,2012-12-30 15:39:00
8:53 AM,19.0,14.0,81,30.16,1.8,WSW,6.9,-,0.00,Snow,Light Snow,240,2012-12-30 15:53:00
9:02 AM,19.4,14.0,80,30.08,2.5,WSW,5.8,-,0.00,Snow,Light Snow,240,2012-12-30 16:02:00
9:27 AM,19.4,15.8,86,30.09,1.8,WSW,5.8,-,0.00,Snow,Light Snow,240,2012-12-30 16:27:00
9:36 AM,19.4,15.8,86,30.10,2.0,SW,5.8,-,0.00,Snow,Light Snow,230,2012-12-30 16:36:00
9:53 AM,19.9,15.1,81,30.18,2.0,WSW,6.9,-,0.00,Snow,Light Snow,240,2012-12-30 16:53:00
10:10 AM,19.4,15.8,86,30.11,2.0,SW,5.8,-,0.00,Snow,Light Snow,230,2012-12-30 17:10:00
10:41 AM,19.4,15.8,86,30.12,2.5,WSW,6.9,-,0.00,Snow,Light Snow,250,2012-12-30 17:41:00
10:53 AM,19.9,15.1,81,30.20,1.8,WSW,6.9,-,0.00,Snow,Light Snow,240,2012-12-30 17:53:00
11:07 AM,21.2,15.8,80,30.12,2.5,WSW,5.8,-,0.00,Snow,Light Snow,240,2012-12-30 18:07:00
11:35 AM,21.2,15.8,80,30.12,1.5,WSW,6.9,-,0.00,Snow,Light Snow,250,2012-12-30 18:35:00
11:44 AM,21.2,15.8,80,30.12,2.0,West,5.8,-,0.00,Snow,Light Snow,260,2012-12-30 18:44:00
11:53 AM,21.9,16.0,78,30.19,2.0,West,6.9,-,0.00,Snow,Light Snow,260,2012-12-30 18:53:00
12:53 PM,23.0,16.0,74,30.18,2.5,West,8.1,-,0.00,,Haze,270,2012-12-30 19:53:00
1:00 PM,21.2,15.8,80,30.11,3.0,West,9.2,-,N/A,,Haze,280,2012-12-30 20:00:00
1:35 PM,21.2,15.8,80,30.10,2.0,West,8.1,-,0.00,Snow,Light Snow,270,2012-12-30 20:35:00
1:53 PM,21.9,16.0,78,30.20,2.5,West,6.9,-,0.00,,Haze,280,2012-12-30 20:53:00
2:03 PM,21.2,15.8,80,30.10,3.0,WSW,8.1,-,N/A,,Haze,250,2012-12-30 21:03:00
2:11 PM,21.2,15.8,80,30.10,4.0,WSW,8.1,-,N/A,,Haze,250,2012-12-30 21:11:00
2:42 PM,21.2,15.8,80,30.10,4.0,WSW,9.2,-,N/A,,Haze,250,2012-12-30 21:42:00
2:53 PM,21.9,16.0,78,30.21,5.0,West,8.1,-,N/A,,Haze,260,2012-12-30 21:53:00
3:53 PM,21.9,15.1,75,30.21,5.0,West,6.9,-,N/A,,Haze,260,2012-12-30 22:53:00
4:39 PM,21.2,15.8,80,30.13,2.0,West,5.8,-,0.00,Snow,Light Snow,270,2012-12-30 23:39:00
4:53 PM,21.0,16.0,81,30.25,1.8,West,8.1,-,0.00,Snow,Light Snow,280,2012-12-30 23:53:00
5:02 PM,19.4,15.8,86,30.13,1.5,West,8.1,-,0.00,Snow,Light Snow,280,2012-12-31 00:02:00
5:27 PM,19.4,15.8,86,30.13,1.2,West,5.8,-,0.00,Snow,Light Snow,260,2012-12-31 00:27:00
5:40 PM,19.4,15.8,86,30.13,2.0,West,4.6,-,0.00,Snow,Light Snow,260,2012-12-31 00:40:00
5:53 PM,19.9,16.0,85,30.23,2.5,West,5.8,-,0.00,Snow,Light Snow,260,2012-12-31 00:53:00
6:01 PM,19.4,15.8,86,30.14,3.0,WSW,3.5,-,0.00,Snow,Light Snow,250,2012-12-31 01:01:00
6:11 PM,19.4,15.8,86,30.14,2.5,West,3.5,-,0.00,Snow,Light Snow,260,2012-12-31 01:11:00
6:26 PM,19.4,15.8,86,30.14,3.0,West,4.6,-,0.00,Snow,Light Snow,260,2012-12-31 01:26:00
6:53 PM,21.0,16.0,81,30.23,3.0,Calm,Calm,-,0.00,Snow,Light Snow,0,2012-12-31 01:53:00
7:53 PM,19.9,16.0,85,30.24,4.0,West,8.1,-,0.00,Snow,Light Snow,260,2012-12-31 02:53:00
8:53 PM,19.9,16.0,85,30.25,5.0,West,8.1,-,0.00,Snow,Light Snow,260,2012-12-31 03:53:00
9:53 PM,19.9,16.0,85,30.25,7.0,Calm,Calm,-,0.00,,Overcast,0,2012-12-31 04:53:00
10:04 PM,19.4,15.8,86,30.16,6.0,South,3.5,-,N/A,,Overcast,190,2012-12-31 05:04:00
10:53 PM,19.0,14.0,81,30.26,10.0,SSW,5.8,-,N/A,,Overcast,200,2012-12-31 05:53:00
11:16 PM,19.4,14.0,80,30.17,7.0,SSW,4.6,-,N/A,,Overcast,200,2012-12-31 06:16:00
11:53 PM,21.0,15.1,78,30.26,7.0,WSW,8.1,-,0.00,Snow,Light Snow,250,2012-12-31 06:53:00